Waarnemingen

Advertentie
Mijn weer
Haparanda A, Zweden (2197): temperatuur & dauwpunt: 12.12.2017 09:00:00 - 18.12.2017 09:00:00 (CET)Haparanda A, Zweden (2197): windsnelheid & windstoten: 12.12.2017 09:00:00 - 18.12.2017 09:00:00 (CET)Haparanda A, Zweden (2197): windrichting: 12.12.2017 09:00:00 - 18.12.2017 09:00:00 (CET)Haparanda A, Zweden (2197): luchtdruk: 12.12.2017 09:00:00 - 18.12.2017 09:00:00 (CET)Haparanda A, Zweden (2197): zicht: 12.12.2017 09:00:00 - 18.12.2017 09:00:00 (CET)Haparanda A, Zweden (2197): neerslag: 12.12.2017 09:00:00 - 18.12.2017 09:00:00 (CET)
Datum & Tijd tt [°C] td [°C] ff [km/u] ff [kn] fx [km/u] fx [kn] dd ppp [hPa] vv [km] rr [mm]
18.12.2017 09:00:00 -18,6 -20,5 2 1 5 3 NNO 1008,8 4,3 0,0
18.12.2017 08:00:00 -18,4 -20,4 3 1 6 3 O 1007,9 11 0,0
18.12.2017 07:00:00 -17,2 -19,0 4 2 5 3 NNW 1007,4 15 0,0
18.12.2017 06:00:00 -16,4 -17,9 4 2 6 4 NNW 1006,7 13 0,0
18.12.2017 05:00:00 -16,0 -17,5 4 2 5 3 NNW 1006,1 - 0,0
18.12.2017 04:00:00 -15,3 -17,0 2 1 6 3 WZW 1005,6 - 0,0
18.12.2017 03:00:00 -13,4 -14,8 5 3 6 4 NNW 1005,5 35 0,0
18.12.2017 02:00:00 -14,4 -15,8 4 2 8 4 NNW 1004,9 50 0,0
18.12.2017 01:00:00 -13,6 -15,0 3 2 7 4 NO 1004,6 49 0,0
18.12.2017 00:00:00 -14,5 -16,0 4 2 6 3 N 1004,7 46 0,0
17.12.2017 23:00:00 -15,8 -17,1 5 3 8 4 NNO 1004,8 37 0,0
17.12.2017 22:00:00 -17,5 -19,3 5 3 8 4 ONO 1004,9 38 0,0
17.12.2017 21:00:00 -17,6 -19,4 3 1 5 3 N 1004,7 31 0,0
17.12.2017 20:00:00 -17,7 -19,5 2 1 3 2 O 1004,4 50 0,0
17.12.2017 19:00:00 -17,8 -19,6 4 2 6 3 ZO 1004,0 50 0,0
17.12.2017 18:00:00 -16,6 -18,4 1 1 8 4 W 1004,1 44 0,0
17.12.2017 17:00:00 -15,6 -17,1 4 2 8 4 ZW 1004,0 50 0,0
17.12.2017 16:00:00 -13,7 -15,1 3 1 7 4 W 1003,4 50 0,0
17.12.2017 15:00:00 -11,8 -13,0 5 3 9 5 WZW 1003,0 50 0,0
17.12.2017 14:00:00 -10,4 -11,6 3 2 8 5 WZW 1003,0 50 0,0
17.12.2017 13:00:00 -9,6 -10,8 3 2 8 4 WZW 1003,0 21 0,0
17.12.2017 12:00:00 -8,9 -10,0 2 1 15 8 W 1002,7 50 0,0
17.12.2017 11:00:00 -7,5 -8,2 4 2 10 5 W 1003,1 26 0,0
17.12.2017 10:00:00 -6,9 -7,7 4 2 11 6 W 1003,0 47 0,0
17.12.2017 09:00:00 -6,4 -7,1 4 2 10 5 W 1003,1 50 0,0
17.12.2017 08:00:00 -5,6 -6,3 5 3 15 8 WZW 1002,9 50 0,0
17.12.2017 07:00:00 -4,9 -5,4 8 4 23 13 ZZW 1002,8 50 0,0
17.12.2017 06:00:00 -4,5 -5,0 11 6 22 12 ZZW 1003,3 50 0,0
17.12.2017 05:00:00 -6,2 -6,9 1 1 8 5 Z 1003,6 14 0,0
17.12.2017 04:00:00 -6,6 -7,3 4 2 9 5 O 1003,5 12 0,0
17.12.2017 03:00:00 -7,0 -7,7 5 3 10 5 O 1004,0 14 0,0
17.12.2017 02:00:00 -7,0 -7,7 4 2 10 6 OZO 1004,1 15 0,0
17.12.2017 01:00:00 -7,6 -8,1 6 4 12 6 OZO 1004,3 3,6 0,0
17.12.2017 00:00:00 -8,3 -9,0 3 2 6 3 OZO 1004,7 3,6 0,0
16.12.2017 23:00:00 -8,7 -9,5 2 1 3 2 O 1004,7 3,5 0,0
16.12.2017 22:00:00 -9,2 -10,0 2 1 5 3 NNW 1004,6 1,3 0,0
16.12.2017 21:00:00 -9,9 -10,7 3 2 6 4 NNW 1004,7 6 0,0
16.12.2017 20:00:00 -10,5 -11,4 4 2 7 4 N 1004,4 15 0,0
16.12.2017 19:00:00 -11,7 -12,7 3 2 6 3 N 1004,2 38 0,0
16.12.2017 18:00:00 -13,6 -15,2 3 2 8 5 NNW 1004,1 50 0,0
16.12.2017 17:00:00 -11,7 -13,0 4 2 8 5 N 1003,7 42 0,0
16.12.2017 16:00:00 -12,1 -13,0 4 2 9 5 N 1003,5 43 0,0
16.12.2017 15:00:00 -12,0 -13,2 5 3 9 5 N 1003,1 26 0,0
16.12.2017 14:00:00 -11,0 -11,9 5 3 8 5 NNO 1002,7 16 0,0
16.12.2017 13:00:00 -10,0 -10,9 6 3 10 5 N 1002,3 20 0,0
16.12.2017 12:00:00 -9,4 -10,3 4 2 8 5 N 1002,1 33 0,0
16.12.2017 11:00:00 -7,3 -8,2 4 2 8 5 N 1001,9 16 0,0
16.12.2017 10:00:00 -6,9 -7,6 4 2 9 5 N 1001,6 29 0,0
16.12.2017 09:00:00 -7,2 -7,9 5 3 8 4 N 1001,2 25 0,0
16.12.2017 08:00:00 -7,5 -8,2 4 2 6 4 N 1000,6 35 0,0
16.12.2017 07:00:00 -7,6 -8,3 3 2 6 3 N 999,9 40 0,0
16.12.2017 06:00:00 -7,4 -7,8 5 3 8 4 NNO 999,4 17 0,0
16.12.2017 05:00:00 -7,7 -8,4 4 2 6 4 N 999,1 13 0,0
16.12.2017 04:00:00 -7,8 -8,6 5 3 6 4 N 998,8 20 0,0
16.12.2017 03:00:00 -6,8 -7,5 4 2 7 4 N 998,4 12 0,0
16.12.2017 02:00:00 -5,2 -5,9 5 3 9 5 N 998,2 9 0,0
16.12.2017 01:00:00 -5,2 -5,9 5 3 10 5 N 997,9 17 0,0
16.12.2017 00:00:00 -4,9 -5,6 6 3 10 6 NNO 997,7 20 0,0
15.12.2017 23:00:00 -4,6 -5,4 6 3 10 6 NNO 997,5 43 0,0
15.12.2017 22:00:00 -4,4 -5,2 5 3 12 7 NO 997,1 10 0,0
15.12.2017 21:00:00 -3,9 -4,9 6 3 11 6 ONO 997,2 9 0,0
15.12.2017 20:00:00 -3,8 -4,8 5 3 12 7 ONO 997,0 30 0,0
15.12.2017 19:00:00 -3,5 -4,5 7 4 13 7 ONO 997,0 50 0,0
15.12.2017 18:00:00 -3,4 -4,2 6 3 13 7 ONO 996,9 29 0,1
15.12.2017 17:00:00 -3,1 -3,9 6 3 13 7 ONO 996,8 11 0,1
15.12.2017 16:00:00 -2,9 -3,7 6 3 15 8 ONO 996,8 10 0,0
15.12.2017 15:00:00 -2,7 -3,5 7 4 16 8 O 996,7 9 0,1
15.12.2017 14:00:00 -2,6 -3,3 7 4 16 9 O 996,7 8 0,2
15.12.2017 13:00:00 -2,5 -3,3 6 4 15 8 O 996,7 6 0,0
15.12.2017 12:00:00 -2,6 -3,6 6 3 15 8 O 996,7 8 0,0
15.12.2017 11:00:00 -2,7 -3,7 7 4 14 8 O 996,8 22 0,0
15.12.2017 10:00:00 -2,6 -3,7 6 4 22 12 ONO 996,8 50 0,0
15.12.2017 09:00:00 -2,5 -4,1 10 5 24 13 O 996,9 50 0,0
15.12.2017 08:00:00 -1,9 -3,5 7 4 27 15 OZO 996,7 50 0,0
15.12.2017 07:00:00 -1,7 -3,1 13 7 29 16 ZO 996,5 50 0,0
15.12.2017 06:00:00 -1,7 -3,0 11 6 30 16 OZO 996,2 50 0,0
15.12.2017 05:00:00 -1,4 -2,7 11 6 30 16 OZO 995,9 50 0,0
15.12.2017 04:00:00 -1,2 -3,1 12 6 30 16 ZO 995,7 50 0,0
15.12.2017 03:00:00 -1,2 -2,8 13 7 28 15 ZO 995,6 38 0,0
15.12.2017 02:00:00 -1,3 -2,6 10 6 29 16 ZO 995,6 45 0,0
15.12.2017 01:00:00 -1,2 -2,8 12 7 33 18 ZZO 995,4 50 0,0
15.12.2017 00:00:00 -1,2 -2,8 13 7 35 19 ZZO 995,6 50 0,1
14.12.2017 23:00:00 -0,7 -1,8 13 7 32 18 ZZO 995,3 50 0,0
14.12.2017 22:00:00 -0,1 -1,4 13 7 31 17 ZZO 994,8 50 0,0
14.12.2017 21:00:00 0,4 -0,6 14 8 34 19 ZZO 994,4 50 0,1
14.12.2017 20:00:00 0,4 -0,2 13 7 30 16 Z 994,0 4,2 0,3
14.12.2017 19:00:00 0,5 0,2 14 8 29 16 Z 993,6 7 0,4
14.12.2017 18:00:00 0,5 0,2 14 8 38 21 Z 992,9 3,7 0,5
14.12.2017 17:00:00 0,4 0,4 14 8 34 18 Z 992,3 3,3 0,9
14.12.2017 16:00:00 -1,7 -1,7 10 5 18 10 Z 992,1 2,8 0,9
14.12.2017 15:00:00 -7,8 -8,6 3 2 7 4 N 991,9 2,6 0,7
14.12.2017 14:00:00 -8,7 -9,6 4 2 9 5 NNO 991,6 2,0 0,6
14.12.2017 13:00:00 -10,0 -11,1 5 3 7 4 NNO 991,4 3,9 0,1
14.12.2017 12:00:00 -11,0 -12,2 4 2 5 3 N 991,3 2,9 0,1
14.12.2017 11:00:00 -12,6 -13,5 3 2 5 3 N 991,1 16 0,0
14.12.2017 10:00:00 -15,7 -17,1 3 2 6 3 NNO 990,7 46 0,0
14.12.2017 09:00:00 -16,3 -17,8 3 2 5 3 NNO 990,2 50 0,0
14.12.2017 08:00:00 -16,9 -18,7 3 2 7 4 O 989,6 50 0,0
14.12.2017 07:00:00 -16,9 -18,3 6 3 7 4 ZZW 989,1 50 0,0
14.12.2017 06:00:00 -17,2 -19,0 4 2 7 4 Z 988,7 50 0,0
14.12.2017 05:00:00 -16,3 -17,7 4 2 7 4 ZZW 988,1 50 0,0
14.12.2017 04:00:00 -15,7 -17,2 3 2 8 5 ZW 987,5 50 0,0
14.12.2017 03:00:00 -14,3 -15,3 4 2 9 5 W 987,2 50 0,0
14.12.2017 02:00:00 -12,5 -13,7 6 3 12 7 ZW 986,5 50 0,0
14.12.2017 01:00:00 -11,8 -13,0 6 3 14 8 ZW 986,0 50 0,0
14.12.2017 00:00:00 -11,6 -12,9 6 4 15 8 ZW 985,4 50 0,0
13.12.2017 23:00:00 -11,4 -13,1 9 5 21 11 ZW 984,8 50 0,0
13.12.2017 22:00:00 -10,6 -12,3 10 6 20 11 WZW 984,2 50 0,0
13.12.2017 21:00:00 -11,9 -13,1 6 3 12 7 WZW 984,0 50 0,0
13.12.2017 20:00:00 -12,4 -13,2 5 3 9 5 WZW 983,8 50 0,0
13.12.2017 19:00:00 -12,2 -13,6 5 3 14 8 ZW 983,4 50 0,0
13.12.2017 18:00:00 -9,3 -10,7 7 4 15 8 ZW 983,5 50 0,0
13.12.2017 17:00:00 -8,7 -9,6 6 3 17 9 ZW 983,2 50 0,0
13.12.2017 16:00:00 -7,4 -8,5 9 5 21 11 ZW 983,0 50 0,0
13.12.2017 15:00:00 -6,4 -7,4 11 6 22 12 ZW 982,5 50 0,0
13.12.2017 14:00:00 -5,1 -6,2 10 5 22 12 WZW 981,9 24 0,1
13.12.2017 13:00:00 -4,6 -5,7 9 5 24 13 WZW 981,1 6 0,2
13.12.2017 12:00:00 -4,4 -5,4 9 5 26 14 W 980,1 4,4 0,1
13.12.2017 11:00:00 -4,3 -5,1 8 4 22 12 W 979,6 3,6 0,1
13.12.2017 10:00:00 -4,4 -5,2 8 5 21 11 W 978,9 5 0,2
13.12.2017 09:00:00 -4,3 -5,1 9 5 19 11 W 978,0 2,9 0,2
13.12.2017 08:00:00 -4,2 -5,0 10 5 20 11 W 977,6 4,5 0,2
13.12.2017 07:00:00 -4,2 -5,0 10 5 21 12 WNW 977,2 3,0 0,1
13.12.2017 06:00:00 -3,9 -4,6 9 5 21 11 WNW 977,1 2,7 0,1
13.12.2017 05:00:00 -3,8 -4,5 7 4 24 13 NW 977,0 3,4 0,0
13.12.2017 04:00:00 -3,5 -4,2 9 5 21 12 NNW 977,2 3,2 0,1
13.12.2017 03:00:00 -3,2 -3,9 11 6 24 13 NNW 977,5 4,0 0,0
13.12.2017 02:00:00 -3,1 -3,6 13 7 27 14 NNW 978,0 1,9 0,4
13.12.2017 01:00:00 -2,9 -3,4 12 6 25 14 N 978,9 1,1 0,8
13.12.2017 00:00:00 -2,6 -3,0 12 7 24 13 N 980,1 1,3 0,7
12.12.2017 23:00:00 -2,8 -3,2 13 7 23 12 N 981,4 1,6 0,7
12.12.2017 22:00:00 -2,7 -3,2 11 6 22 12 N 983,2 1,9 0,5
12.12.2017 21:00:00 -2,7 -3,2 13 7 27 14 N 984,7 1,8 0,6
12.12.2017 20:00:00 -2,6 -3,1 15 8 29 16 NNO 986,6 2,2 0,6
12.12.2017 19:00:00 -2,8 -3,3 15 8 29 16 NNO 988,4 1,7 0,5
12.12.2017 18:00:00 -2,9 -3,4 14 8 28 15 NNO 990,0 2,4 0,7
12.12.2017 17:00:00 -3,1 -3,6 15 8 30 16 NNO 991,9 1,1 0,7
12.12.2017 16:00:00 -3,2 -3,7 13 7 22 12 NNO 993,8 0,9 0,8
12.12.2017 15:00:00 -3,1 -3,6 11 6 20 11 NNO 995,0 1,4 0,6
12.12.2017 14:00:00 -3,3 -3,8 11 6 20 11 NNO 996,0 2,4 0,3
12.12.2017 13:00:00 -3,2 -4,2 6 4 16 9 NO 997,7 3,7 0,0
12.12.2017 12:00:00 -3,1 -4,4 7 4 16 8 ONO 998,9 50 0,0
12.12.2017 11:00:00 -3,1 -4,8 8 4 14 7 NO 999,7 50 0,0
12.12.2017 10:00:00 -3,1 -5,0 7 4 13 7 ONO 1000,7 50 0,0
12.12.2017 09:00:00 -3,1 -5,1 5 3 11 6 ONO 1001,3 50 0,0

tt = temperatuur
td = dauwpunt
ff = windsnelheid
fx = windstoten
dd = windrichting
ppp = luchtdruk
vv = zicht
rr = neerslag

Weerstations in de omgeving